Time,TemperatureF,DewpointF,PressureIn,WindDirection,WindDirectionDegrees,WindSpeedMPH,WindSpeedGustMPH,Humidity,HourlyPrecipIn,Conditions,Clouds,dailyrainin,SoftwareType,DateUTC
2013-07-08 00:01:00,70.5,67.5,28.29,South,180,2.0,2.0,90,0.00,,,0.00,meteohub,2013-07-08 04:01:00,
2013-07-08 00:02:00,70.5,67.5,28.30,South,180,1.0,2.0,90,0.00,,,0.00,meteohub,2013-07-08 04:02:00,
2013-07-08 00:07:00,70.3,67.3,28.30,South,180,1.0,2.0,90,0.00,,,0.00,meteohub,2013-07-08 04:07:00,
2013-07-08 00:12:00,70.3,67.3,28.29,West,270,0.0,2.0,90,0.00,,,0.00,meteohub,2013-07-08 04:12:00,
2013-07-08 00:17:00,70.2,67.1,28.29,West,270,0.0,2.0,90,0.00,,,0.00,meteohub,2013-07-08 04:17:00,
2013-07-08 00:22:00,70.0,66.9,28.30,North,0,0.0,2.0,90,0.00,,,0.00,meteohub,2013-07-08 04:22:00,
2013-07-08 00:27:00,70.0,66.9,28.30,South,180,1.0,2.0,90,0.00,,,0.00,meteohub,2013-07-08 04:27:00,
2013-07-08 00:32:00,69.8,66.7,28.30,South,180,0.0,2.0,90,0.00,,,0.00,meteohub,2013-07-08 04:32:00,
2013-07-08 00:37:00,69.6,67.3,28.30,NW,315,2.0,2.0,92,0.00,,,0.00,meteohub,2013-07-08 04:37:00,
2013-07-08 00:42:00,69.4,67.1,28.30,NW,315,2.0,2.0,92,0.00,,,0.00,meteohub,2013-07-08 04:42:00,
2013-07-08 00:47:00,69.3,66.9,28.30,NE,45,2.0,2.0,92,0.00,,,0.00,meteohub,2013-07-08 04:47:00,
2013-07-08 00:52:00,69.3,66.9,28.32,NE,45,4.0,4.0,92,0.00,,,0.00,meteohub,2013-07-08 04:52:00,
2013-07-08 00:57:00,69.4,67.3,28.31,NE,45,4.0,5.0,93,0.00,,,0.00,meteohub,2013-07-08 04:57:00,
2013-07-08 01:03:00,69.4,67.3,28.31,North,0,3.0,5.0,93,0.00,,,0.00,meteohub,2013-07-08 05:03:00,
2013-07-08 01:08:00,69.4,67.3,28.31,North,0,3.0,5.0,93,0.00,,,0.00,meteohub,2013-07-08 05:08:00,
2013-07-08 01:13:00,69.4,67.6,28.31,North,0,4.0,4.0,94,0.00,,,0.00,meteohub,2013-07-08 05:13:00,
2013-07-08 01:18:00,69.4,67.6,28.31,North,0,2.0,4.0,94,0.00,,,0.00,meteohub,2013-07-08 05:18:00,
2013-07-08 01:23:00,69.4,67.6,28.30,NE,45,2.0,4.0,94,0.00,,,0.00,meteohub,2013-07-08 05:23:00,
2013-07-08 01:28:00,69.3,67.5,28.31,North,0,1.0,4.0,94,0.00,,,0.00,meteohub,2013-07-08 05:28:00,
2013-07-08 01:33:00,69.3,67.5,28.31,South,180,1.0,3.0,94,0.00,,,0.00,meteohub,2013-07-08 05:33:00,
2013-07-08 01:38:00,69.1,67.3,28.30,East,90,1.0,3.0,94,0.00,,,0.00,meteohub,2013-07-08 05:38:00,
2013-07-08 01:43:00,69.1,67.3,28.30,South,180,2.0,3.0,94,0.00,,,0.00,meteohub,2013-07-08 05:43:00,
2013-07-08 01:49:00,68.9,67.1,28.30,SE,135,1.0,3.0,94,0.00,,,0.00,meteohub,2013-07-08 05:49:00,
2013-07-08 01:54:00,68.9,67.1,28.30,SW,225,0.0,3.0,94,0.00,,,0.00,meteohub,2013-07-08 05:54:00,
2013-07-08 01:59:00,68.5,66.7,28.30,East,90,0.0,3.0,94,0.00,,,0.00,meteohub,2013-07-08 05:59:00,
2013-07-08 02:04:00,68.5,66.7,28.31,NE,45,2.0,2.0,94,0.00,,,0.00,meteohub,2013-07-08 06:04:00,
2013-07-08 02:09:00,68.4,66.6,28.31,NW,315,1.0,2.0,94,0.00,,,0.00,meteohub,2013-07-08 06:09:00,
2013-07-08 02:14:00,68.4,66.6,28.30,South,180,0.0,2.0,94,0.00,,,0.00,meteohub,2013-07-08 06:14:00,
2013-07-08 02:19:00,68.4,66.6,28.30,NE,45,0.0,2.0,94,0.00,,,0.00,meteohub,2013-07-08 06:19:00,
2013-07-08 02:24:00,68.4,66.6,28.30,East,90,0.0,2.0,94,0.00,,,0.00,meteohub,2013-07-08 06:24:00,
2013-07-08 02:29:00,68.2,66.4,28.30,East,90,0.0,2.0,94,0.00,,,0.00,meteohub,2013-07-08 06:29:00,
2013-07-08 02:34:00,68.2,66.4,28.30,East,90,0.0,1.0,94,0.00,,,0.00,meteohub,2013-07-08 06:34:00,
2013-07-08 02:39:00,68.2,66.7,28.30,SE,135,0.0,1.0,95,0.00,,,0.00,meteohub,2013-07-08 06:39:00,
2013-07-08 02:44:00,68.2,66.7,28.30,SE,135,0.0,0.0,95,0.00,,,0.00,meteohub,2013-07-08 06:44:00,
2013-07-08 02:49:00,68.2,66.7,28.30,East,90,0.0,0.0,95,0.00,,,0.00,meteohub,2013-07-08 06:49:00,
2013-07-08 02:55:00,68.2,66.7,28.30,East,90,0.0,0.0,95,0.00,,,0.00,meteohub,2013-07-08 06:55:00,
2013-07-08 03:00:00,68.2,66.7,28.30,East,90,0.0,0.0,95,0.00,,,0.00,meteohub,2013-07-08 07:00:00,
2013-07-08 03:05:00,68.2,66.7,28.30,East,90,0.0,0.0,95,0.00,,,0.00,meteohub,2013-07-08 07:05:00,
2013-07-08 03:10:00,68.2,66.7,28.30,East,90,0.0,0.0,95,0.00,,,0.00,meteohub,2013-07-08 07:10:00,
2013-07-08 03:15:00,68.2,66.7,28.30,SE,135,0.0,0.0,95,0.00,,,0.00,meteohub,2013-07-08 07:15:00,
2013-07-08 03:20:00,68.2,66.7,28.30,NE,45,0.0,0.0,95,0.00,,,0.00,meteohub,2013-07-08 07:20:00,
2013-07-08 03:25:00,68.4,66.9,28.30,NE,45,1.0,1.0,95,0.00,,,0.00,meteohub,2013-07-08 07:25:00,
2013-07-08 03:30:00,68.5,67.1,28.30,South,180,3.0,3.0,95,0.00,,,0.00,meteohub,2013-07-08 07:30:00,
2013-07-08 03:35:00,68.5,67.1,28.30,NE,45,2.0,3.0,95,0.00,,,0.00,meteohub,2013-07-08 07:35:00,
2013-07-08 03:40:00,68.7,67.3,28.30,SW,225,0.0,3.0,95,0.00,,,0.00,meteohub,2013-07-08 07:40:00,
2013-07-08 03:45:00,68.7,67.3,28.30,West,270,0.0,3.0,95,0.00,,,0.00,meteohub,2013-07-08 07:45:00,
2013-07-08 03:50:00,68.9,67.5,28.30,West,270,0.0,2.0,95,0.00,,,0.00,meteohub,2013-07-08 07:50:00,
2013-07-08 03:55:00,69.1,67.6,28.30,North,0,2.0,2.0,95,0.00,,,0.00,meteohub,2013-07-08 07:55:00,
2013-07-08 04:00:00,69.3,67.8,28.31,NE,45,4.0,4.0,95,0.00,,,0.00,meteohub,2013-07-08 08:00:00,
2013-07-08 04:06:00,69.4,68.0,28.31,North,0,4.0,4.0,95,0.00,,,0.00,meteohub,2013-07-08 08:06:00,
2013-07-08 04:11:00,69.6,67.8,28.31,North,0,5.0,5.0,94,0.00,,,0.00,meteohub,2013-07-08 08:11:00,
2013-07-08 04:16:00,69.8,67.3,28.31,North,0,3.0,5.0,92,0.00,,,0.00,meteohub,2013-07-08 08:16:00,
2013-07-08 04:21:00,69.8,67.1,28.31,NNE,23,3.0,5.0,91,0.00,,,0.00,meteohub,2013-07-08 08:21:00,
2013-07-08 04:26:00,70.0,67.3,28.31,NW,315,4.0,5.0,91,0.00,,,0.00,meteohub,2013-07-08 08:26:00,
2013-07-08 04:31:00,70.0,66.9,28.32,North,0,2.0,5.0,90,0.00,,,0.00,meteohub,2013-07-08 08:31:00,
2013-07-08 04:36:00,70.2,67.1,28.31,North,0,4.0,5.0,90,0.00,,,0.00,meteohub,2013-07-08 08:36:00,
2013-07-08 04:41:00,70.2,67.1,28.32,NW,315,3.0,4.0,90,0.00,,,0.00,meteohub,2013-07-08 08:41:00,
2013-07-08 04:46:00,70.0,66.6,28.32,North,0,5.0,5.0,89,0.00,,,0.00,meteohub,2013-07-08 08:46:00,
2013-07-08 04:51:00,70.0,66.6,28.31,North,0,4.0,6.0,89,0.00,,,0.00,meteohub,2013-07-08 08:51:00,
2013-07-08 04:56:00,69.8,66.4,28.31,North,0,5.0,6.0,89,0.00,,,0.00,meteohub,2013-07-08 08:56:00,
2013-07-08 05:01:00,69.6,66.6,28.31,East,90,3.0,6.0,90,0.00,,,0.00,meteohub,2013-07-08 09:01:00,
2013-07-08 05:06:00,69.6,66.6,28.31,NW,315,3.0,6.0,90,0.00,,,0.00,meteohub,2013-07-08 09:06:00,
2013-07-08 05:11:00,69.3,66.2,28.31,SW,225,0.0,6.0,90,0.00,,,0.00,meteohub,2013-07-08 09:11:00,
2013-07-08 05:17:00,69.1,66.0,28.32,ENE,68,1.0,3.0,90,0.00,,,0.00,meteohub,2013-07-08 09:17:00,
2013-07-08 05:22:00,68.7,65.7,28.32,West,270,1.0,3.0,90,0.00,,,0.00,meteohub,2013-07-08 09:22:00,
2013-07-08 05:27:00,68.7,66.0,28.32,NE,45,2.0,3.0,91,0.00,,,0.00,meteohub,2013-07-08 09:27:00,
2013-07-08 05:32:00,68.5,65.8,28.32,SE,135,2.0,5.0,91,0.00,,,0.00,meteohub,2013-07-08 09:32:00,
2013-07-08 05:37:00,68.5,65.5,28.33,SE,135,2.0,5.0,90,0.00,,,0.00,meteohub,2013-07-08 09:37:00,
2013-07-08 05:42:00,68.4,65.3,28.33,NW,315,0.0,5.0,90,0.00,,,0.00,meteohub,2013-07-08 09:42:00,
2013-07-08 05:47:00,68.2,65.1,28.32,West,270,0.0,2.0,90,0.00,,,0.00,meteohub,2013-07-08 09:47:00,
2013-07-08 05:52:00,68.0,64.9,28.32,West,270,0.0,2.0,90,0.00,,,0.00,meteohub,2013-07-08 09:52:00,
2013-07-08 05:57:00,67.8,65.1,28.33,West,270,0.0,2.0,91,0.00,,,0.00,meteohub,2013-07-08 09:57:00,
2013-07-08 06:02:00,67.6,65.3,28.33,West,270,0.0,1.0,92,0.00,,,0.00,meteohub,2013-07-08 10:02:00,
2013-07-08 06:07:00,67.3,64.9,28.33,NE,45,0.0,0.0,92,0.00,,,0.00,meteohub,2013-07-08 10:07:00,
2013-07-08 06:12:00,67.1,64.8,28.33,West,270,0.0,1.0,92,0.00,,,0.00,meteohub,2013-07-08 10:12:00,
2013-07-08 06:17:00,66.9,64.6,28.33,North,0,1.0,1.0,92,0.00,,,0.00,meteohub,2013-07-08 10:17:00,
2013-07-08 06:22:00,66.9,64.6,28.34,North,0,1.0,1.0,92,0.00,,,0.00,meteohub,2013-07-08 10:22:00,
2013-07-08 06:27:00,67.8,65.7,28.33,North,0,2.0,2.0,93,0.00,,,0.00,meteohub,2013-07-08 10:27:00,
2013-07-08 06:32:00,68.2,65.8,28.33,SW,225,0.0,3.0,92,0.00,,,0.00,meteohub,2013-07-08 10:32:00,
2013-07-08 06:37:00,68.5,66.2,28.33,SE,135,0.0,3.0,92,0.00,,,0.00,meteohub,2013-07-08 10:37:00,
2013-07-08 06:42:00,69.3,66.9,28.33,NE,45,0.0,3.0,92,0.00,,,0.00,meteohub,2013-07-08 10:42:00,
2013-07-08 06:47:00,70.2,67.1,28.32,North,0,1.0,2.0,90,0.00,,,0.00,meteohub,2013-07-08 10:47:00,
2013-07-08 06:52:00,70.7,67.3,28.33,NE,45,1.0,2.0,89,0.00,,,0.00,meteohub,2013-07-08 10:52:00,
2013-07-08 06:57:00,71.1,66.4,28.33,SE,135,2.0,2.0,85,0.00,,,0.00,meteohub,2013-07-08 10:57:00,
2013-07-08 07:02:00,71.8,66.4,28.33,NE,45,2.0,2.0,83,0.00,,,0.00,meteohub,2013-07-08 11:02:00,
2013-07-08 07:07:00,72.3,66.6,28.33,NW,315,0.0,2.0,82,0.00,,,0.00,meteohub,2013-07-08 11:07:00,
2013-07-08 07:12:00,73.0,66.9,28.33,North,0,2.0,2.0,81,0.00,,,0.00,meteohub,2013-07-08 11:12:00,
2013-07-08 07:17:00,73.0,66.2,28.34,NNE,23,2.0,3.0,79,0.00,,,0.00,meteohub,2013-07-08 11:17:00,
2013-07-08 07:22:00,73.0,65.8,28.34,NE,45,2.0,4.0,78,0.00,,,0.00,meteohub,2013-07-08 11:22:00,
2013-07-08 07:27:00,73.4,66.2,28.34,NE,45,2.0,4.0,78,0.00,,,0.00,meteohub,2013-07-08 11:27:00,
2013-07-08 07:32:00,73.6,65.8,28.34,NE,45,2.0,4.0,77,0.00,,,0.00,meteohub,2013-07-08 11:32:00,
2013-07-08 07:37:00,73.8,65.7,28.34,East,90,4.0,4.0,76,0.00,,,0.00,meteohub,2013-07-08 11:37:00,
2013-07-08 07:42:00,73.9,65.1,28.34,North,0,5.0,5.0,74,0.00,,,0.00,meteohub,2013-07-08 11:42:00,
2013-07-08 07:47:00,73.9,64.8,28.34,NE,45,6.0,6.0,73,0.00,,,0.00,meteohub,2013-07-08 11:47:00,
2013-07-08 07:52:00,74.1,64.9,28.35,NE,45,4.0,6.0,73,0.00,,,0.00,meteohub,2013-07-08 11:52:00,
2013-07-08 07:57:00,74.5,64.9,28.35,NE,45,4.0,6.0,72,0.00,,,0.00,meteohub,2013-07-08 11:57:00,
2013-07-08 08:02:00,74.1,64.6,28.35,East,90,2.0,6.0,72,0.00,,,0.00,meteohub,2013-07-08 12:02:00,
2013-07-08 08:07:00,74.1,64.6,28.35,East,90,2.0,6.0,72,0.00,,,0.00,meteohub,2013-07-08 12:07:00,
2013-07-08 08:12:00,72.9,63.7,28.35,NNW,338,4.0,6.0,73,0.00,,,0.00,meteohub,2013-07-08 12:12:00,
2013-07-08 08:17:00,72.9,64.0,28.35,North,0,2.0,5.0,74,0.00,,,0.00,meteohub,2013-07-08 12:17:00,
2013-07-08 08:22:00,73.4,64.9,28.35,NE,45,4.0,5.0,75,0.00,,,0.00,meteohub,2013-07-08 12:22:00,
2013-07-08 08:27:00,73.8,64.9,28.35,NE,45,3.0,5.0,74,0.00,,,0.00,meteohub,2013-07-08 12:27:00,
2013-07-08 08:32:00,74.5,65.3,28.34,NE,45,9.0,9.0,73,0.00,,,0.00,meteohub,2013-07-08 12:32:00,
2013-07-08 08:37:00,75.0,65.3,28.34,East,90,4.0,9.0,72,0.00,,,0.00,meteohub,2013-07-08 12:37:00,
2013-07-08 08:42:00,75.6,64.8,28.34,East,90,4.0,9.0,69,0.00,,,0.00,meteohub,2013-07-08 12:42:00,
2013-07-08 08:47:00,76.1,65.1,28.33,North,0,4.0,9.0,69,0.00,,,0.00,meteohub,2013-07-08 12:47:00,
2013-07-08 08:52:00,76.5,64.8,28.34,South,180,2.0,5.0,67,0.00,,,0.00,meteohub,2013-07-08 12:52:00,
2013-07-08 08:57:00,77.0,65.1,28.34,NW,315,2.0,4.0,67,0.00,,,0.00,meteohub,2013-07-08 12:57:00,
2013-07-08 09:02:00,77.2,64.0,28.34,North,0,8.0,9.0,64,0.00,,,0.00,meteohub,2013-07-08 13:02:00,
2013-07-08 09:07:00,76.8,64.6,28.34,WNW,293,5.0,9.0,66,0.00,,,0.00,meteohub,2013-07-08 13:07:00,
2013-07-08 09:12:00,75.9,64.2,28.34,North,0,3.0,9.0,67,0.00,,,0.00,meteohub,2013-07-08 13:12:00,
2013-07-08 09:17:00,76.5,65.1,28.34,NW,315,5.0,9.0,68,0.00,,,0.00,meteohub,2013-07-08 13:17:00,
2013-07-08 09:22:00,76.8,64.6,28.34,North,0,10.0,10.0,66,0.00,,,0.00,meteohub,2013-07-08 13:22:00,
2013-07-08 09:27:00,77.2,64.6,28.34,North,0,6.0,10.0,65,0.00,,,0.00,meteohub,2013-07-08 13:27:00,
2013-07-08 09:32:00,77.0,63.9,28.35,North,0,5.0,10.0,64,0.00,,,0.00,meteohub,2013-07-08 13:32:00,
2013-07-08 09:37:00,75.7,64.4,28.35,North,0,3.0,10.0,68,0.00,,,0.00,meteohub,2013-07-08 13:37:00,
2013-07-08 09:42:00,74.8,64.8,28.34,North,0,3.0,8.0,71,0.00,,,0.00,meteohub,2013-07-08 13:42:00,
2013-07-08 09:47:00,75.2,65.1,28.35,North,0,6.0,8.0,71,0.00,,,0.00,meteohub,2013-07-08 13:47:00,
2013-07-08 09:52:00,75.2,65.1,28.35,NE,45,4.0,8.0,71,0.00,,,0.00,meteohub,2013-07-08 13:52:00,
2013-07-08 09:57:00,75.4,65.3,28.35,NE,45,10.0,10.0,71,0.00,,,0.00,meteohub,2013-07-08 13:57:00,
2013-07-08 10:02:00,75.9,65.5,28.34,North,0,8.0,10.0,70,0.00,,,0.00,meteohub,2013-07-08 14:02:00,
2013-07-08 10:07:00,77.2,65.8,28.34,NW,315,4.0,10.0,68,0.00,,,0.00,meteohub,2013-07-08 14:07:00,
2013-07-08 10:12:00,77.2,64.9,28.35,North,0,4.0,10.0,66,0.00,,,0.00,meteohub,2013-07-08 14:12:00,
2013-07-08 10:17:00,76.3,64.9,28.35,NNE,23,3.0,8.0,68,0.00,,,0.00,meteohub,2013-07-08 14:17:00,
2013-07-08 10:22:00,76.3,65.3,28.34,NE,45,5.0,7.0,69,0.00,,,0.00,meteohub,2013-07-08 14:22:00,
2013-07-08 10:27:00,77.2,65.3,28.35,NE,45,8.0,8.0,67,0.00,,,0.00,meteohub,2013-07-08 14:27:00,
2013-07-08 10:32:00,77.7,64.9,28.34,NE,45,7.0,8.0,65,0.00,,,0.00,meteohub,2013-07-08 14:32:00,
2013-07-08 10:37:00,77.9,64.8,28.35,North,0,4.0,8.0,64,0.00,,,0.00,meteohub,2013-07-08 14:37:00,
2013-07-08 10:42:00,77.4,63.9,28.34,NE,45,4.0,8.0,63,0.00,,,0.00,meteohub,2013-07-08 14:42:00,
2013-07-08 10:47:00,77.0,63.9,28.35,North,0,4.0,8.0,64,0.00,,,0.00,meteohub,2013-07-08 14:47:00,
2013-07-08 10:52:00,76.5,64.8,28.35,West,270,3.0,8.0,67,0.00,,,0.00,meteohub,2013-07-08 14:52:00,
2013-07-08 10:57:00,76.3,64.6,28.35,North,0,4.0,10.0,67,0.00,,,0.00,meteohub,2013-07-08 14:57:00,
2013-07-08 11:02:00,77.0,65.1,28.35,NE,45,5.0,10.0,67,0.00,,,0.00,meteohub,2013-07-08 15:02:00,
2013-07-08 11:07:00,77.5,65.3,28.35,North,0,6.0,10.0,66,0.00,,,0.00,meteohub,2013-07-08 15:07:00,
2013-07-08 11:12:00,77.2,64.9,28.35,NE,45,6.0,10.0,66,0.00,,,0.00,meteohub,2013-07-08 15:12:00,
2013-07-08 11:17:00,77.5,65.7,28.35,North,0,6.0,8.0,67,0.00,,,0.00,meteohub,2013-07-08 15:17:00,
2013-07-08 11:22:00,78.4,65.7,28.35,North,0,4.0,8.0,65,0.00,,,0.00,meteohub,2013-07-08 15:22:00,
2013-07-08 11:27:00,78.4,65.7,28.35,North,0,4.0,10.0,65,0.00,,,0.00,meteohub,2013-07-08 15:27:00,
2013-07-08 11:32:00,77.7,64.6,28.35,NE,45,8.0,11.0,64,0.00,,,0.00,meteohub,2013-07-08 15:32:00,
2013-07-08 11:37:00,76.8,64.9,28.35,ENE,68,2.0,11.0,67,0.00,,,0.00,meteohub,2013-07-08 15:37:00,
2013-07-08 11:42:00,77.7,65.8,28.35,North,0,7.0,11.0,67,0.00,,,0.00,meteohub,2013-07-08 15:42:00,
2013-07-08 11:47:00,78.8,65.1,28.35,North,0,9.0,11.0,63,0.00,,,0.00,meteohub,2013-07-08 15:47:00,
2013-07-08 11:52:00,79.0,65.8,28.36,North,0,4.0,10.0,64,0.00,,,0.00,meteohub,2013-07-08 15:52:00,
2013-07-08 11:57:00,79.0,65.3,28.35,North,0,4.0,10.0,63,0.00,,,0.00,meteohub,2013-07-08 15:57:00,
2013-07-08 12:02:00,78.8,64.8,28.35,North,0,8.0,10.0,62,0.00,,,0.00,meteohub,2013-07-08 16:02:00,
2013-07-08 12:07:00,79.7,65.5,28.35,North,0,7.0,8.0,62,0.00,,,0.00,meteohub,2013-07-08 16:07:00,
2013-07-08 12:12:00,80.8,65.1,28.35,West,270,5.0,8.0,59,0.00,,,0.00,meteohub,2013-07-08 16:12:00,
2013-07-08 12:17:00,81.3,65.1,28.35,North,0,6.0,8.0,58,0.00,,,0.00,meteohub,2013-07-08 16:17:00,
2013-07-08 12:22:00,81.3,65.1,28.35,North,0,6.0,8.0,58,0.00,,,0.00,meteohub,2013-07-08 16:22:00,
2013-07-08 12:27:00,80.6,64.9,28.36,North,0,6.0,8.0,59,0.00,,,0.00,meteohub,2013-07-08 16:27:00,
2013-07-08 12:32:00,80.1,64.9,28.35,NNW,338,4.0,7.0,60,0.00,,,0.00,meteohub,2013-07-08 16:32:00,
2013-07-08 12:37:00,78.8,64.2,28.36,NNW,338,5.0,9.0,61,0.00,,,0.00,meteohub,2013-07-08 16:37:00,
2013-07-08 12:42:00,77.9,64.8,28.36,North,0,2.0,11.0,64,0.00,,,0.00,meteohub,2013-07-08 16:42:00,
2013-07-08 12:47:00,78.1,64.9,28.35,North,0,4.0,11.0,64,0.00,,,0.00,meteohub,2013-07-08 16:47:00,
2013-07-08 12:52:00,78.6,65.5,28.35,West,270,4.0,11.0,64,0.00,,,0.00,meteohub,2013-07-08 16:52:00,
2013-07-08 12:57:00,78.4,65.7,28.35,NW,315,2.0,10.0,65,0.00,,,0.00,meteohub,2013-07-08 16:57:00,
2013-07-08 13:02:00,78.6,65.8,28.35,NNW,338,8.0,11.0,65,0.00,,,0.00,meteohub,2013-07-08 17:02:00,
2013-07-08 13:08:00,79.3,64.8,28.35,NW,315,13.0,13.0,61,0.00,,,0.00,meteohub,2013-07-08 17:08:00,
2013-07-08 13:13:00,79.7,65.5,28.36,North,0,7.0,13.0,62,0.00,,,0.00,meteohub,2013-07-08 17:13:00,
2013-07-08 13:18:00,79.2,64.9,28.37,SW,225,7.0,13.0,62,0.00,,,0.00,meteohub,2013-07-08 17:18:00,
2013-07-08 13:24:00,78.3,65.5,28.37,WNW,293,2.0,13.0,65,0.00,,,0.00,meteohub,2013-07-08 17:24:00,
2013-07-08 13:29:00,78.1,66.2,28.36,West,270,4.0,8.0,67,0.00,,,0.00,meteohub,2013-07-08 17:29:00,
2013-07-08 13:35:00,78.1,65.8,28.36,North,0,8.0,9.0,66,0.00,,,0.00,meteohub,2013-07-08 17:35:00,
2013-07-08 13:40:00,77.5,65.3,28.36,West,270,8.0,9.0,66,0.00,,,0.00,meteohub,2013-07-08 17:40:00,
2013-07-08 13:46:00,77.5,66.2,28.35,NE,45,3.0,8.0,68,0.00,,,0.00,meteohub,2013-07-08 17:46:00,
2013-07-08 13:52:00,78.8,65.7,28.35,NNE,23,5.0,8.0,64,0.00,,,0.00,meteohub,2013-07-08 17:52:00,
2013-07-08 13:57:00,79.2,65.5,28.35,NW,315,8.0,9.0,63,0.00,,,0.00,meteohub,2013-07-08 17:57:00,
2013-07-08 14:02:00,79.5,64.9,28.35,NW,315,4.0,9.0,61,0.00,,,0.00,meteohub,2013-07-08 18:02:00,
2013-07-08 14:07:00,79.9,65.7,28.35,ENE,68,3.0,9.0,62,0.00,,,0.00,meteohub,2013-07-08 18:07:00,
2013-07-08 14:12:00,80.1,65.5,28.35,NNW,338,8.0,8.0,61,0.00,,,0.00,meteohub,2013-07-08 18:12:00,
2013-07-08 14:17:00,79.3,64.8,28.35,West,270,8.0,8.0,61,0.00,,,0.00,meteohub,2013-07-08 18:17:00,
2013-07-08 14:22:00,79.9,65.7,28.34,West,270,2.0,8.0,62,0.00,,,0.00,meteohub,2013-07-08 18:22:00,
2013-07-08 14:31:00,81.1,65.5,28.34,NW,315,4.0,8.0,59,0.00,,,0.00,meteohub,2013-07-08 18:31:00,
2013-07-08 14:36:00,81.1,65.5,28.34,SE,135,3.0,8.0,59,0.00,,,0.00,meteohub,2013-07-08 18:36:00,
2013-07-08 14:41:00,81.5,65.3,28.33,North,0,4.0,8.0,58,0.00,,,0.00,meteohub,2013-07-08 18:41:00,
2013-07-08 14:46:00,81.3,65.1,28.33,NE,45,6.0,9.0,58,0.00,,,0.00,meteohub,2013-07-08 18:46:00,
2013-07-08 14:51:00,80.8,64.6,28.33,North,0,5.0,9.0,58,0.00,,,0.00,meteohub,2013-07-08 18:51:00,
2013-07-08 14:56:00,81.1,64.9,28.33,NE,45,3.0,9.0,58,0.00,,,0.00,meteohub,2013-07-08 18:56:00,
2013-07-08 15:01:00,81.7,66.0,28.33,North,0,4.0,6.0,59,0.00,,,0.00,meteohub,2013-07-08 19:01:00,
2013-07-08 15:07:00,81.5,64.8,28.33,East,90,3.0,7.0,57,0.00,,,0.00,meteohub,2013-07-08 19:07:00,
2013-07-08 15:12:00,81.3,65.1,28.33,North,0,8.0,8.0,58,0.00,,,0.00,meteohub,2013-07-08 19:12:00,
2013-07-08 15:18:00,81.1,64.9,28.33,NW,315,2.0,8.0,58,0.00,,,0.00,meteohub,2013-07-08 19:18:00,
2013-07-08 15:23:00,80.8,64.6,28.33,West,270,2.0,8.0,58,0.00,,,0.00,meteohub,2013-07-08 19:23:00,
2013-07-08 15:28:00,80.6,64.4,28.33,NW,315,4.0,8.0,58,0.00,,,0.00,meteohub,2013-07-08 19:28:00,
2013-07-08 15:34:00,80.4,65.3,28.33,NW,315,2.0,5.0,60,0.00,,,0.00,meteohub,2013-07-08 19:34:00,
2013-07-08 15:39:00,80.2,65.5,28.33,East,90,3.0,5.0,61,0.00,,,0.00,meteohub,2013-07-08 19:39:00,
2013-07-08 15:45:00,80.6,64.9,28.33,NW,315,5.0,5.0,59,0.00,,,0.00,meteohub,2013-07-08 19:45:00,
2013-07-08 15:50:00,80.2,65.5,28.33,West,270,0.0,5.0,61,0.00,,,0.00,meteohub,2013-07-08 19:50:00,
2013-07-08 15:55:00,80.4,65.7,28.33,South,180,2.0,5.0,61,0.00,,,0.00,meteohub,2013-07-08 19:55:00,
2013-07-08 16:00:00,82.2,66.0,28.32,North,0,6.0,6.0,58,0.00,,,0.00,meteohub,2013-07-08 20:00:00,
2013-07-08 16:06:00,82.8,63.9,28.32,NE,45,5.0,8.0,53,0.00,,,0.00,meteohub,2013-07-08 20:06:00,
2013-07-08 16:11:00,81.7,63.9,28.32,NW,315,2.0,8.0,55,0.00,,,0.00,meteohub,2013-07-08 20:11:00,
2013-07-08 16:17:00,81.1,64.9,28.32,ENE,68,4.0,8.0,58,0.00,,,0.00,meteohub,2013-07-08 20:17:00,
2013-07-08 16:22:00,81.3,64.6,28.32,WSW,248,2.0,6.0,57,0.00,,,0.00,meteohub,2013-07-08 20:22:00,
2013-07-08 16:27:00,82.4,66.2,28.32,NE,45,3.0,4.0,58,0.00,,,0.00,meteohub,2013-07-08 20:27:00,
2013-07-08 16:32:00,83.1,65.3,28.31,North,0,2.0,4.0,55,0.00,,,0.00,meteohub,2013-07-08 20:32:00,
2013-07-08 16:37:00,83.8,66.0,28.31,North,0,5.0,5.0,55,0.00,,,0.00,meteohub,2013-07-08 20:37:00,
2013-07-08 16:43:00,83.7,64.8,28.31,North,0,3.0,5.0,53,0.00,,,0.00,meteohub,2013-07-08 20:43:00,
2013-07-08 16:48:00,83.5,64.0,28.31,North,0,2.0,8.0,52,0.00,,,0.00,meteohub,2013-07-08 20:48:00,
2013-07-08 16:54:00,83.3,64.9,28.31,West,270,4.0,8.0,54,0.00,,,0.00,meteohub,2013-07-08 20:54:00,
2013-07-08 16:59:00,82.6,64.8,28.31,NW,315,4.0,8.0,55,0.00,,,0.00,meteohub,2013-07-08 20:59:00,
2013-07-08 17:05:00,81.5,63.9,28.31,North,0,3.0,4.0,55,0.00,,,0.00,meteohub,2013-07-08 21:05:00,
2013-07-08 17:10:00,80.8,64.0,28.32,NW,315,6.0,6.0,57,0.00,,,0.00,meteohub,2013-07-08 21:10:00,
2013-07-08 17:15:00,80.1,64.9,28.32,North,0,2.0,6.0,60,0.00,,,0.00,meteohub,2013-07-08 21:15:00,
2013-07-08 17:20:00,79.9,64.8,28.32,North,0,1.0,6.0,60,0.00,,,0.00,meteohub,2013-07-08 21:20:00,
2013-07-08 17:25:00,80.2,65.5,28.31,NE,45,2.0,6.0,61,0.00,,,0.00,meteohub,2013-07-08 21:25:00,
2013-07-08 17:31:00,80.2,65.5,28.31,NE,45,3.0,4.0,61,0.00,,,0.00,meteohub,2013-07-08 21:31:00,
2013-07-08 17:36:00,80.1,65.8,28.31,North,0,5.0,5.0,62,0.00,,,0.00,meteohub,2013-07-08 21:36:00,
2013-07-08 17:41:00,79.7,66.0,28.31,North,0,2.0,5.0,63,0.00,,,0.00,meteohub,2013-07-08 21:41:00,
2013-07-08 17:46:00,79.9,65.7,28.31,NW,315,1.0,5.0,62,0.00,,,0.00,meteohub,2013-07-08 21:46:00,
2013-07-08 17:52:00,80.1,65.8,28.31,SE,135,2.0,5.0,62,0.00,,,0.00,meteohub,2013-07-08 21:52:00,
2013-07-08 17:57:00,79.9,66.2,28.31,SE,135,4.0,4.0,63,0.00,,,0.00,meteohub,2013-07-08 21:57:00,
2013-07-08 18:02:00,79.9,68.4,28.31,South,180,2.0,4.0,68,0.00,,,0.00,meteohub,2013-07-08 22:02:00,
2013-07-08 18:07:00,79.7,69.1,28.31,North,0,4.0,4.0,70,0.00,,,0.00,meteohub,2013-07-08 22:07:00,
2013-07-08 18:13:00,78.8,68.5,28.32,South,180,4.0,7.0,71,0.00,,,0.00,meteohub,2013-07-08 22:13:00,
2013-07-08 18:19:00,78.3,68.9,28.32,East,90,4.0,8.0,73,0.00,,,0.00,meteohub,2013-07-08 22:19:00,
2013-07-08 18:25:00,77.2,69.1,28.32,SE,135,3.0,8.0,76,0.00,,,0.00,meteohub,2013-07-08 22:25:00,
2013-07-08 18:30:00,77.0,69.3,28.33,East,90,3.0,8.0,77,0.00,,,0.00,meteohub,2013-07-08 22:30:00,
2013-07-08 18:37:00,76.5,69.8,28.33,SSW,203,4.0,6.0,80,0.01,,,0.00,meteohub,2013-07-08 22:37:00,
2013-07-08 18:42:00,75.7,69.4,28.32,SE,135,3.0,5.0,81,0.01,,,0.01,meteohub,2013-07-08 22:42:00,
2013-07-08 18:47:00,74.7,68.7,28.33,East,90,3.0,5.0,82,0.02,,,0.02,meteohub,2013-07-08 22:47:00,
2013-07-08 18:55:00,73.6,68.4,28.33,East,90,2.0,5.0,84,0.02,,,0.02,meteohub,2013-07-08 22:55:00,
2013-07-08 19:00:00,73.2,68.7,28.33,SW,225,5.0,5.0,86,0.02,,,0.02,meteohub,2013-07-08 23:00:00,
2013-07-08 19:05:00,72.7,68.2,28.33,SE,135,2.0,5.0,86,0.02,,,0.02,meteohub,2013-07-08 23:05:00,
2013-07-08 19:11:00,72.5,68.4,28.33,SE,135,2.0,5.0,87,0.02,,,0.02,meteohub,2013-07-08 23:11:00,
2013-07-08 19:16:00,72.1,68.4,28.34,South,180,4.0,5.0,88,0.02,,,0.02,meteohub,2013-07-08 23:16:00,
2013-07-08 19:21:00,71.8,67.6,28.34,SE,135,2.0,5.0,87,0.02,,,0.02,meteohub,2013-07-08 23:21:00,
2013-07-08 19:27:00,71.8,68.0,28.34,South,180,2.0,5.0,88,0.02,,,0.02,meteohub,2013-07-08 23:27:00,
2013-07-08 19:32:00,71.6,67.8,28.34,South,180,4.0,5.0,88,0.02,,,0.02,meteohub,2013-07-08 23:32:00,
2013-07-08 19:37:00,71.4,68.4,28.34,SE,135,4.0,4.0,90,0.01,,,0.02,meteohub,2013-07-08 23:37:00,
2013-07-08 19:43:00,71.2,68.2,28.34,South,180,1.0,4.0,90,0.01,,,0.02,meteohub,2013-07-08 23:43:00,
2013-07-08 19:48:00,71.2,68.5,28.35,South,180,3.0,4.0,91,0.00,,,0.02,meteohub,2013-07-08 23:48:00,
2013-07-08 19:53:00,71.2,68.5,28.35,East,90,2.0,4.0,91,0.00,,,0.02,meteohub,2013-07-08 23:53:00,
2013-07-08 19:58:00,71.2,68.7,28.35,East,90,2.0,4.0,92,0.00,,,0.02,meteohub,2013-07-08 23:58:00,
2013-07-08 20:04:00,71.4,68.9,28.35,SW,225,2.0,4.0,92,0.00,,,0.02,meteohub,2013-07-09 00:04:00,
2013-07-08 20:09:00,71.2,68.7,28.35,SE,135,2.0,4.0,92,0.00,,,0.02,meteohub,2013-07-09 00:09:00,
2013-07-08 20:15:00,71.2,68.5,28.35,SW,225,2.0,3.0,91,0.00,,,0.02,meteohub,2013-07-09 00:15:00,
2013-07-08 20:21:00,71.1,68.4,28.36,South,180,1.0,3.0,91,0.00,,,0.02,meteohub,2013-07-09 00:21:00,
2013-07-08 20:26:00,71.1,68.4,28.36,SE,135,3.0,3.0,91,0.00,,,0.02,meteohub,2013-07-09 00:26:00,
2013-07-08 20:31:00,70.9,68.2,28.36,SE,135,2.0,6.0,91,0.00,,,0.02,meteohub,2013-07-09 00:31:00,
2013-07-08 20:36:00,70.7,68.2,28.36,NE,45,3.0,6.0,92,0.00,,,0.02,meteohub,2013-07-09 00:36:00,
2013-07-08 20:41:00,70.5,68.0,28.37,East,90,2.0,6.0,92,0.00,,,0.02,meteohub,2013-07-09 00:41:00,
2013-07-08 20:46:00,70.5,68.0,28.37,South,180,2.0,4.0,92,0.00,,,0.02,meteohub,2013-07-09 00:46:00,
2013-07-08 20:52:00,70.3,67.8,28.37,NW,315,0.0,4.0,92,0.00,,,0.02,meteohub,2013-07-09 00:52:00,
2013-07-08 20:57:00,70.2,67.6,28.37,NW,315,0.0,3.0,92,0.00,,,0.02,meteohub,2013-07-09 00:57:00,
2013-07-08 21:02:00,70.0,67.5,28.37,SE,135,2.0,4.0,92,0.00,,,0.02,meteohub,2013-07-09 01:02:00,
2013-07-08 21:07:00,70.0,67.5,28.37,SE,135,2.0,4.0,92,0.00,,,0.02,meteohub,2013-07-09 01:07:00,
2013-07-08 21:12:00,69.8,67.3,28.37,SE,135,0.0,4.0,92,0.00,,,0.02,meteohub,2013-07-09 01:12:00,
2013-07-08 21:17:00,69.8,67.3,28.37,SE,135,1.0,4.0,92,0.00,,,0.02,meteohub,2013-07-09 01:17:00,
2013-07-08 21:22:00,69.6,67.5,28.37,SE,135,2.0,3.0,93,0.00,,,0.02,meteohub,2013-07-09 01:22:00,
2013-07-08 21:27:00,69.6,67.5,28.38,South,180,2.0,3.0,93,0.00,,,0.02,meteohub,2013-07-09 01:27:00,
2013-07-08 21:32:00,69.6,67.5,28.38,SE,135,1.0,2.0,93,0.00,,,0.02,meteohub,2013-07-09 01:32:00,
2013-07-08 21:38:00,69.6,67.5,28.38,SE,135,0.0,2.0,93,0.00,,,0.02,meteohub,2013-07-09 01:38:00,
2013-07-08 21:43:00,69.4,67.3,28.39,East,90,0.0,2.0,93,0.00,,,0.02,meteohub,2013-07-09 01:43:00,
2013-07-08 21:48:00,69.4,67.3,28.38,SE,135,0.0,2.0,93,0.00,,,0.02,meteohub,2013-07-09 01:48:00,
2013-07-08 21:54:00,69.4,67.3,28.38,SE,135,0.0,2.0,93,0.00,,,0.02,meteohub,2013-07-09 01:54:00,
2013-07-08 21:59:00,69.3,67.1,28.38,SE,135,0.0,1.0,93,0.00,,,0.02,meteohub,2013-07-09 01:59:00,
2013-07-08 22:05:00,69.3,67.1,28.38,NE,45,0.0,0.0,93,0.00,,,0.02,meteohub,2013-07-09 02:05:00,
2013-07-08 22:10:00,69.3,67.1,28.38,NW,315,0.0,0.0,93,0.00,,,0.02,meteohub,2013-07-09 02:10:00,
2013-07-08 22:16:00,69.1,66.9,28.38,NW,315,0.0,0.0,93,0.00,,,0.02,meteohub,2013-07-09 02:16:00,
2013-07-08 22:21:00,69.1,66.9,28.39,NW,315,0.0,0.0,93,0.00,,,0.02,meteohub,2013-07-09 02:21:00,
2013-07-08 22:27:00,68.9,67.1,28.38,SE,135,0.0,0.0,94,0.00,,,0.02,meteohub,2013-07-09 02:27:00,
2013-07-08 22:32:00,68.9,67.1,28.39,SE,135,0.0,0.0,94,0.00,,,0.02,meteohub,2013-07-09 02:32:00,
2013-07-08 22:38:00,68.9,67.1,28.39,South,180,0.0,0.0,94,0.00,,,0.02,meteohub,2013-07-09 02:38:00,
2013-07-08 22:43:00,68.9,67.1,28.39,South,180,0.0,1.0,94,0.00,,,0.02,meteohub,2013-07-09 02:43:00,
2013-07-08 22:49:00,68.9,67.1,28.39,South,180,0.0,1.0,94,0.00,,,0.02,meteohub,2013-07-09 02:49:00,
2013-07-08 22:54:00,68.7,66.9,28.39,South,180,0.0,1.0,94,0.00,,,0.02,meteohub,2013-07-09 02:54:00,
2013-07-08 23:00:00,68.7,66.9,28.38,South,180,0.0,1.0,94,0.00,,,0.02,meteohub,2013-07-09 03:00:00,
2013-07-08 23:05:00,68.7,66.9,28.38,South,180,0.0,0.0,94,0.00,,,0.02,meteohub,2013-07-09 03:05:00,
2013-07-08 23:10:00,68.7,67.3,28.38,South,180,0.0,0.0,95,0.00,,,0.02,meteohub,2013-07-09 03:10:00,
2013-07-08 23:15:00,68.7,67.3,28.39,South,180,0.0,0.0,95,0.00,,,0.02,meteohub,2013-07-09 03:15:00,
2013-07-08 23:20:00,68.7,67.3,28.38,South,180,0.0,1.0,95,0.00,,,0.02,meteohub,2013-07-09 03:20:00,
2013-07-08 23:25:00,68.7,67.3,28.38,South,180,0.0,1.0,95,0.00,,,0.02,meteohub,2013-07-09 03:25:00,
2013-07-08 23:30:00,68.5,67.1,28.38,South,180,0.0,0.0,95,0.00,,,0.02,meteohub,2013-07-09 03:30:00,
2013-07-08 23:37:00,68.5,67.1,28.38,South,180,0.0,0.0,95,0.00,,,0.02,meteohub,2013-07-09 03:37:00,
2013-07-08 23:42:00,68.5,67.1,28.37,SE,135,0.0,0.0,95,0.00,,,0.02,meteohub,2013-07-09 03:42:00,
2013-07-08 23:47:00,68.4,66.9,28.37,SE,135,0.0,0.0,95,0.00,,,0.02,meteohub,2013-07-09 03:47:00,
2013-07-08 23:52:00,68.2,66.7,28.38,SE,135,0.0,0.0,95,0.00,,,0.02,meteohub,2013-07-09 03:52:00,
2013-07-08 23:58:00,68.2,66.7,28.38,SE,135,0.0,0.0,95,0.00,,,0.02,meteohub,2013-07-09 03:58:00,